sat.trackr.live / text

‹ back to catalog

STARLINK-5959

NORAD 56454 · 2023-064G

PAYLOAD ACTIVE UNKNOWN

§ Identity

Operator
Country
US
Launch date
2023-05-10
Launch site
AFWTR
Launch vehicle
Mass (kg)
RCS (m²)

Purposes: comms

External: N2YO · Heavens-Above · Gunter

§ Orbital elements

Epoch: 2026-05-25T04:18:30.534912Z

Period
96.11 min
Inclination
69.9991°
Eccentricity
0.0003086
Mean motion
14.98329408 rev/d
Perigee alt
569.9 km
Apogee alt
574.2 km
Semi-major
6,950.2 km
B*
5.9801e-5
RAAN
311.5900°
Arg perigee
266.8247°
Mean anomaly
93.2559°
Rev number
16,670

§ Raw data

STARLINK-59591 56454U 23064G   26145.17952008  .00000621  00000+0  59801-4 0  99942 56454  69.9991 311.5900 0003086 266.8247  93.2559 14.98329408166701

JSON: /api/v1/satellites/56454 · /tle

For live sub-satellite position, see the globe view (requires WebGL).

§ Visibility from observer

Set your observer location to see the next 7 days of passes ≥ 10°. The values pass through the URL so the page stays shareable.

No JS? Fill the form by hand. The geolocation button needs JavaScript.